CAPE
557 342 354 347 50 7 2 2 0 7 3 9 7 3 39 120 185 174 227 161 144 150
332 258 325 107 5 4 4 2 1 0 2 3 2 7 31 55 69 93 136 163 196 145
223 224 175 49 6 3 6 3 2 3 2 1 1 0 7 5 31 100 142 102 121 82
89 92 129 79 13 3 3 4 4 5 4 1 1 1 3 5 3 13 3 0 10 20
67 60 41 24 9 5 5 2 2 1 1 1 0 0 0 0 0 0 0 0 0 7
62 59 18 11 17 9 8 6 2 3 4 1 0 0 0 0 0 0 0 1 18 4
109 133 69 70 57 8 17 9 10 9 6 6 5 3 0 0 0 0 0 2 6 22
76 71 109 83 53 41 53 30 19 21 17 11 6 2 1 1 2 0 0 0 2 9
41 23 32 53 36 19 27 29 38 46 50 46 0 0 0 0 4 2 9 1 0 14
0 0 1 0 1 2 10 18 0 0 0 0 0 0 0 0 0 5 0 0 0 0
0 0 0 0 1 1 1 1 2 1 0 0 0 0 0 0 0 0 0 0 0 0
1 1 0 1 2 2 1 1 2 2 1 1 1 0 0 0 0 0 1 2 2 0
2 2 2 3 3 3 2 2 1 1 2 2 2 1 0 0 0 1 1 1 1 1
2 2 3 2 2 2 1 1 1 1 2 1 2 2 2 0 0 0 0 1 0 1
CIN
-118 -150 -83 -57 -137 0 0 0 -0 -12 -11 -11 -26 -9 -3 -1 -0 -3 -1 -8 -11 -14
-182 -160 -96 -157 0 0 0 0 0 0 -38 -29 -0 -26 -5 -3 -8 -4 -6 -5 -2 -11
-222 -184 -153 -214 0 0 0 0 0 0 0 0 0 -1 -28 -23 -6 -1 -0 -1 -5 -22
-302 -253 -170 -168 -3 0 0 0 -0 -0 -0 0 0 0 -0 -1 -4 -25 -9 0 -89 -29
-290 -290 -252 0 0 -0 0 0 0 -0 0 0 0 0 0 0 0 0 0 0 -4 -12
-273 -288 -318 -0 0 0 0 0 0 0 0 0 0 0 0 0 0 0 0 0 0 0
-190 -166 -213 -161 -115 -2 -0 0 0 0 -0 0 0 0 -0 0 0 0 0 -0 0 -0
-192 -187 -143 -157 -153 -100 -14 0 -1 -0 0 0 0 0 0 0 0 -0 0 0 -0 -0
-196 -31 -210 -165 -11 0 0 0 -1 -1 -0 0 0 0 0 0 0 0 0 -0 0 -0
0 0 0 -6 -10 -8 -1 -1 0 0 0 0 0 0 0 0 0 -7 0 0 0 0
0 0 0 0 0 0 0 0 0 0 0 0 0 0 0 0 0 0 0 0 0 0
0 0 0 0 0 0 0 0 0 0 0 0 0 0 0 0 0 0 0 0 0 0
0 0 0 0 0 0 0 0 0 0 0 0 0 0 0 0 0 0 0 0 0 0
0 0 0 0 0 0 0 -0 0 0 0 0 0 0 0 0 0 0 0 0 0 0
Wind_Speed
10 7 8 7 6 6 6 7 9 15 14 15 15 13 11 11 12 11 11 12 9 6
10 9 7 7 8 5 6 5 6 9 12 15 17 17 13 9 9 10 9 9 10 8
9 8 6 8 9 8 6 9 9 9 8 11 12 16 15 11 10 9 8 7 8 6
10 9 8 8 8 9 9 10 11 10 10 9 10 11 11 12 10 11 10 5 6 7
10 11 8 8 8 10 10 10 11 10 10 8 8 9 9 9 8 7 8 8 10 11
11 10 8 9 10 8 11 11 10 11 11 12 10 10 9 9 10 11 12 14 14 15
11 10 10 9 12 11 12 10 11 11 11 12 11 11 11 11 11 11 12 13 14 13
9 9 8 8 8 8 10 12 12 13 13 12 11 8 12 12 12 12 12 14 14 14
8 7 7 8 8 6 6 5 3 7 11 12 8 9 9 5 10 11 11 11 12 14
10 11 10 7 7 7 2 4 8 10 12 11 9 12 8 6 2 3 3 4 6 4
11 12 11 12 12 11 11 11 10 11 11 10 11 15 10 6 11 11 12 11 9 8
12 12 12 13 13 11 11 12 12 11 12 11 12 17 10 9 11 12 13 12 12 9
12 14 14 12 13 11 12 12 10 13 12 17 12 18 16 12 8 11 8 9 10 18
13 15 14 12 12 12 11 11 12 13 12 14 14 16 19 16 9 7 8 8 8 8
Wind_Direction
189 192 209 171 184 195 185 191 193 187 181 181 172 171 176 189 190 187 189 187 178 196
179 199 170 160 176 167 159 152 156 161 175 174 175 170 177 175 175 180 184 192 191 189
183 168 144 153 164 161 148 150 144 135 141 159 151 155 165 169 172 179 185 187 201 210
170 155 155 151 153 155 144 148 147 143 143 142 139 145 151 160 156 172 178 177 187 220
166 145 156 150 145 154 150 153 151 147 138 139 143 145 144 149 155 166 189 206 213 216
173 145 151 157 157 152 152 159 162 161 161 165 169 171 174 176 178 195 206 216 215 222
175 151 164 166 158 164 164 156 160 171 172 171 174 181 180 181 189 201 208 218 222 232
174 156 162 154 160 155 160 165 175 179 180 174 182 187 186 193 197 204 213 224 231 225
152 152 160 157 157 156 162 169 152 176 180 180 74 24 39 198 197 207 220 218 233 233
66 64 51 68 76 64 138 92 52 44 74 72 50 16 35 44 212 209 52 33 29 22
57 62 58 63 68 67 60 64 69 61 57 58 31 11 15 21 88 77 62 50 42 44
54 63 66 63 59 60 69 65 64 60 55 50 32 15 15 93 92 85 74 61 49 51
61 66 64 65 64 62 66 71 68 63 51 46 40 32 50 76 89 90 84 68 54 47
66 75 70 68 69 67 65 71 69 68 56 48 41 41 55 64 76 83 84 71 59 57